Time,TemperatureF,DewpointF,PressureIn,WindDirection,WindDirectionDegrees,WindSpeedMPH,WindSpeedGustMPH,Humidity,HourlyPrecipIn,Conditions,Clouds,dailyrainin,SoftwareType,DateUTC
2013-04-14 06:53:00,54.1,44.6,29.16,SSE,158,1.3,1.3,70,0.00,,,0.00,WUHU216HW,2013-04-14 11:53:00,
2013-04-14 06:58:00,54.1,44.6,29.17,SSE,158,4.2,4.2,70,0.00,,,0.00,WUHU216HW,2013-04-14 11:58:00,
2013-04-14 07:03:00,53.9,44.4,29.17,South,180,4.6,4.6,70,0.00,,,0.00,WUHU216HW,2013-04-14 12:03:00,
2013-04-14 07:08:00,53.9,44.7,29.17,South,180,0.0,4.6,71,0.00,,,0.00,WUHU216HW,2013-04-14 12:08:00,
2013-04-14 07:13:00,53.9,44.7,29.17,South,180,9.8,9.8,71,0.00,,,0.00,WUHU216HW,2013-04-14 12:13:00,
2013-04-14 07:18:00,54.1,44.9,29.17,SSE,158,0.0,9.8,71,0.00,,,0.00,WUHU216HW,2013-04-14 12:18:00,
2013-04-14 07:23:00,54.1,44.9,29.17,SSE,158,0.0,3.5,71,0.00,,,0.00,WUHU216HW,2013-04-14 12:23:00,
2013-04-14 07:28:00,54.3,45.1,29.18,SE,135,2.6,4.0,71,0.00,,,0.00,WUHU216HW,2013-04-14 12:28:00,
2013-04-14 07:33:00,54.5,45.3,29.18,SE,135,3.1,4.0,71,0.00,,,0.00,WUHU216HW,2013-04-14 12:33:00,
2013-04-14 07:38:00,54.6,45.4,29.18,South,180,3.3,3.3,71,0.00,,,0.00,WUHU216HW,2013-04-14 12:38:00,
2013-04-14 07:43:00,55.0,45.8,29.18,SE,135,0.0,7.8,71,0.00,,,0.00,WUHU216HW,2013-04-14 12:43:00,
2013-04-14 07:48:00,55.4,45.8,29.19,SSE,158,3.5,8.0,70,0.00,,,0.00,WUHU216HW,2013-04-14 12:48:00,
2013-04-14 07:53:00,55.7,46.1,29.19,SE,135,4.4,8.0,70,0.00,,,0.00,WUHU216HW,2013-04-14 12:53:00,
2013-04-14 07:58:00,55.9,46.3,29.19,SSE,158,8.2,8.2,70,0.00,,,0.00,WUHU216HW,2013-04-14 12:58:00,
2013-04-14 08:03:00,56.4,46.4,29.19,SSE,158,7.6,8.2,69,0.00,,,0.00,WUHU216HW,2013-04-14 13:03:00,
2013-04-14 08:08:00,57.2,46.6,29.19,South,180,10.2,10.2,68,0.00,,,0.00,WUHU216HW,2013-04-14 13:08:00,
2013-04-14 08:13:00,57.7,47.2,29.19,SSE,158,4.0,10.2,68,0.00,,,0.00,WUHU216HW,2013-04-14 13:13:00,
2013-04-14 08:18:00,57.9,46.9,29.19,SE,135,4.9,7.8,67,0.00,,,0.00,WUHU216HW,2013-04-14 13:18:00,
2013-04-14 08:23:00,58.6,46.9,29.19,SSE,158,6.0,12.0,66,0.00,,,0.00,WUHU216HW,2013-04-14 13:23:00,
2013-04-14 08:28:00,58.8,47.0,29.19,SSE,158,6.9,12.0,65,0.00,,,0.00,WUHU216HW,2013-04-14 13:28:00,
2013-04-14 08:33:00,58.8,47.0,29.19,SSE,158,6.2,8.7,65,0.00,,,0.00,WUHU216HW,2013-04-14 13:33:00,
2013-04-14 08:38:00,59.0,47.3,29.19,South,180,0.0,8.0,65,0.00,,,0.00,WUHU216HW,2013-04-14 13:38:00,
2013-04-14 08:43:00,59.3,47.5,29.19,South,180,10.0,14.9,65,0.00,,,0.00,WUHU216HW,2013-04-14 13:43:00,
2013-04-14 08:48:00,59.5,47.7,29.19,SSW,203,10.2,14.9,65,0.00,,,0.00,WUHU216HW,2013-04-14 13:48:00,
2013-04-14 08:53:00,59.7,47.6,29.19,SSE,158,6.0,10.2,64,0.00,,,0.00,WUHU216HW,2013-04-14 13:53:00,
2013-04-14 08:58:00,60.0,47.8,29.18,SE,135,8.0,8.0,64,0.00,,,0.00,WUHU216HW,2013-04-14 13:58:00,
2013-04-14 09:03:00,60.0,47.8,29.18,SSE,158,6.2,8.0,64,0.00,,,0.00,WUHU216HW,2013-04-14 14:03:00,
2013-04-14 09:08:00,60.0,47.4,29.18,South,180,5.3,9.3,63,0.00,,,0.00,WUHU216HW,2013-04-14 14:08:00,
2013-04-14 09:13:00,60.0,47.4,29.17,South,180,1.1,9.3,63,0.00,,,0.00,WUHU216HW,2013-04-14 14:13:00,
2013-04-14 09:18:00,60.4,47.8,29.18,SSE,158,7.8,7.8,63,0.00,,,0.00,WUHU216HW,2013-04-14 14:18:00,
2013-04-14 09:23:00,60.6,48.3,29.18,WSW,248,4.4,10.5,63,0.00,,,0.00,WUHU216HW,2013-04-14 14:23:00,
2013-04-14 09:28:00,61.7,48.9,29.18,SE,135,6.7,10.5,63,0.00,,,0.00,WUHU216HW,2013-04-14 14:28:00,
2013-04-14 09:33:00,62.0,48.9,29.18,South,180,10.9,10.9,62,0.00,,,0.00,WUHU216HW,2013-04-14 14:33:00,
2013-04-14 09:38:00,62.7,49.5,29.17,South,180,4.0,10.9,62,0.00,,,0.00,WUHU216HW,2013-04-14 14:38:00,
2013-04-14 09:43:00,62.9,49.7,29.17,East,90,12.7,12.7,62,0.00,,,0.00,WUHU216HW,2013-04-14 14:43:00,
2013-04-14 09:48:00,63.1,49.4,29.17,South,180,9.1,12.7,61,0.00,,,0.00,WUHU216HW,2013-04-14 14:48:00,
2013-04-14 09:53:00,63.6,49.5,29.16,South,180,3.8,12.7,60,0.00,,,0.00,WUHU216HW,2013-04-14 14:53:00,
2013-04-14 09:58:00,64.2,50.0,29.16,SSE,158,12.9,12.9,60,0.00,,,0.00,WUHU216HW,2013-04-14 14:58:00,
2013-04-14 10:03:00,64.2,49.5,29.16,NE,45,9.1,12.9,59,0.00,,,0.00,WUHU216HW,2013-04-14 15:03:00,
2013-04-14 10:08:00,64.4,49.5,29.16,South,180,6.4,12.9,59,0.00,,,0.00,WUHU216HW,2013-04-14 15:08:00,
2013-04-14 10:13:00,64.5,50.3,29.15,SE,135,4.4,11.8,60,0.00,,,0.00,WUHU216HW,2013-04-14 15:13:00,
2013-04-14 10:18:00,64.9,50.2,29.15,SSE,158,10.5,17.0,59,0.00,,,0.00,WUHU216HW,2013-04-14 15:18:00,
2013-04-14 10:23:00,65.3,50.5,29.15,SSE,158,12.7,17.0,59,0.00,,,0.00,WUHU216HW,2013-04-14 15:23:00,
2013-04-14 10:28:00,65.4,50.7,29.15,SE,135,11.6,12.7,59,0.00,,,0.00,WUHU216HW,2013-04-14 15:28:00,
2013-04-14 10:33:00,65.8,50.6,29.15,SSW,203,7.6,12.7,58,0.00,,,0.00,WUHU216HW,2013-04-14 15:33:00,
2013-04-14 10:38:00,66.3,51.1,29.15,South,180,9.6,15.4,58,0.00,,,0.00,WUHU216HW,2013-04-14 15:38:00,
2013-04-14 10:43:00,66.9,51.1,29.15,SSE,158,6.0,15.4,57,0.00,,,0.00,WUHU216HW,2013-04-14 15:43:00,
2013-04-14 10:48:00,67.1,51.3,29.15,SE,135,9.3,11.8,57,0.00,,,0.00,WUHU216HW,2013-04-14 15:48:00,
2013-04-14 10:53:00,67.6,51.3,29.15,South,180,10.5,11.8,56,0.00,,,0.00,WUHU216HW,2013-04-14 15:53:00,
2013-04-14 10:58:00,67.8,51.4,29.15,South,180,9.3,10.5,56,0.00,,,0.00,WUHU216HW,2013-04-14 15:58:00,
2013-04-14 11:03:00,68.1,51.8,29.15,SSE,158,8.2,10.0,56,0.00,,,0.00,WUHU216HW,2013-04-14 16:03:00,
2013-04-14 11:08:00,68.7,51.8,29.15,SE,135,6.4,10.2,55,0.00,,,0.00,WUHU216HW,2013-04-14 16:08:00,
2013-04-14 11:13:00,69.0,52.1,29.16,South,180,2.6,15.6,55,0.00,,,0.00,WUHU216HW,2013-04-14 16:13:00,
2013-04-14 11:18:00,69.0,51.6,29.17,SW,225,0.6,15.6,54,0.00,,,0.00,WUHU216HW,2013-04-14 16:18:00,
2013-04-14 11:23:00,68.7,51.3,29.17,South,180,8.2,9.6,54,0.00,,,0.00,WUHU216HW,2013-04-14 16:23:00,
2013-04-14 11:28:00,68.9,51.5,29.16,SE,135,10.2,10.2,54,0.00,,,0.00,WUHU216HW,2013-04-14 16:28:00,
2013-04-14 11:33:00,69.0,51.6,29.16,SE,135,8.0,12.3,54,0.00,,,0.00,WUHU216HW,2013-04-14 16:33:00,
2013-04-14 11:38:00,69.6,51.6,29.17,SSE,158,9.3,12.3,53,0.00,,,0.00,WUHU216HW,2013-04-14 16:38:00,
2013-04-14 11:43:00,69.8,51.8,29.16,South,180,11.6,11.6,53,0.00,,,0.00,WUHU216HW,2013-04-14 16:43:00,
2013-04-14 11:48:00,70.1,52.1,29.16,SSE,158,7.1,11.6,53,0.00,,,0.00,WUHU216HW,2013-04-14 16:48:00,
2013-04-14 11:53:00,70.7,52.1,29.16,South,180,18.5,18.5,52,0.00,,,0.00,WUHU216HW,2013-04-14 16:53:00,
2013-04-14 11:58:00,70.8,51.8,29.16,SSE,158,6.7,18.5,51,0.00,,,0.00,WUHU216HW,2013-04-14 16:58:00,
2013-04-14 12:03:00,71.0,51.9,29.16,South,180,11.8,14.0,51,0.00,,,0.00,WUHU216HW,2013-04-14 17:03:00,
2013-04-14 12:10:00,70.7,51.6,29.15,SSE,158,8.0,12.0,51,0.00,,,0.00,WUHU216HW,2013-04-14 17:10:00,
2013-04-14 12:11:00,70.5,51.5,29.15,SSE,158,8.0,11.8,51,0.00,,,0.00,WUHU216HW,2013-04-14 17:11:00,
2013-04-14 12:13:00,70.5,51.5,29.15,SE,135,7.6,10.2,51,0.00,,,0.00,WUHU216HW,2013-04-14 17:13:00,
2013-04-14 12:14:00,70.5,51.5,29.15,SE,135,7.6,10.2,51,0.00,,,0.00,WUHU216HW,2013-04-14 17:14:00,
2013-04-14 12:16:00,70.3,51.3,29.14,SSW,203,8.2,10.2,51,0.00,,,0.00,WUHU216HW,2013-04-14 17:16:00,
2013-04-14 12:17:00,70.3,51.8,29.14,SE,135,3.1,8.2,52,0.00,,,0.00,WUHU216HW,2013-04-14 17:17:00,
2013-04-14 12:19:00,70.3,51.8,29.14,South,180,10.0,10.0,52,0.00,,,0.00,WUHU216HW,2013-04-14 17:19:00,
2013-04-14 12:20:00,70.3,51.3,29.14,South,180,10.0,10.0,51,0.00,,,0.00,WUHU216HW,2013-04-14 17:20:00,
2013-04-14 12:22:00,70.3,51.3,29.14,SSE,158,6.2,10.0,51,0.00,,,0.00,WUHU216HW,2013-04-14 17:22:00,
2013-04-14 12:23:00,70.3,51.3,29.14,SSE,158,11.1,11.1,51,0.00,,,0.00,WUHU216HW,2013-04-14 17:23:00,
2013-04-14 12:25:00,70.3,51.8,29.14,SSE,158,8.7,11.1,52,0.00,,,0.00,WUHU216HW,2013-04-14 17:25:00,
2013-04-14 12:26:00,70.3,51.8,29.14,SSE,158,8.7,11.1,52,0.00,,,0.00,WUHU216HW,2013-04-14 17:26:00,
2013-04-14 12:28:00,70.3,51.5,29.14,SSE,158,8.7,11.1,52,0.00,,,0.00,WUHU216HW,2013-04-14 17:28:00,
2013-04-14 12:29:00,70.5,51.5,29.14,SSE,158,5.1,11.1,51,0.00,,,0.00,WUHU216HW,2013-04-14 17:29:00,
2013-04-14 12:31:00,70.8,51.3,29.14,SSW,203,5.8,11.1,50,0.00,,,0.00,WUHU216HW,2013-04-14 17:31:00,
2013-04-14 12:32:00,71.2,51.6,29.14,SSW,203,9.1,11.1,50,0.00,,,0.00,WUHU216HW,2013-04-14 17:32:00,
2013-04-14 12:34:00,71.2,52.1,29.14,South,180,11.8,11.8,51,0.00,,,0.00,WUHU216HW,2013-04-14 17:34:00,
2013-04-14 12:44:00,71.9,52.3,29.14,SSE,158,6.0,14.9,50,0.00,,,0.00,WUHU216HW,2013-04-14 17:44:00,
2013-04-14 12:49:00,72.1,52.4,29.13,SSE,158,5.3,8.5,50,0.00,,,0.00,WUHU216HW,2013-04-14 17:49:00,
2013-04-14 12:54:00,71.7,51.5,29.13,South,180,7.1,11.1,49,0.00,,,0.00,WUHU216HW,2013-04-14 17:54:00,
2013-04-14 12:59:00,71.7,51.5,29.13,SSE,158,6.9,13.4,49,0.00,,,0.00,WUHU216HW,2013-04-14 17:59:00,
2013-04-14 13:04:00,71.9,52.3,29.13,SSE,158,7.1,13.4,50,0.00,,,0.00,WUHU216HW,2013-04-14 18:04:00,
2013-04-14 13:09:00,72.3,52.0,29.13,SSE,158,8.9,13.6,49,0.00,,,0.00,WUHU216HW,2013-04-14 18:09:00,
2013-04-14 13:14:00,72.3,52.0,29.13,SSE,158,6.0,13.6,49,0.00,,,0.00,WUHU216HW,2013-04-14 18:14:00,
2013-04-14 13:19:00,72.1,51.8,29.12,SSE,158,9.3,12.9,49,0.00,,,0.00,WUHU216HW,2013-04-14 18:19:00,
2013-04-14 13:24:00,71.9,51.7,29.13,South,180,9.8,9.8,49,0.00,,,0.00,WUHU216HW,2013-04-14 18:24:00,
2013-04-14 13:29:00,71.4,51.2,29.13,South,180,3.1,9.8,49,0.00,,,0.00,WUHU216HW,2013-04-14 18:29:00,
2013-04-14 13:34:00,71.4,51.8,29.13,SSW,203,0.8,9.8,50,0.00,,,0.00,WUHU216HW,2013-04-14 18:34:00,
2013-04-14 13:39:00,71.2,51.6,29.12,South,180,8.2,12.3,50,0.00,,,0.00,WUHU216HW,2013-04-14 18:39:00,
2013-04-14 13:44:00,71.2,51.6,29.12,SW,225,6.0,12.3,50,0.00,,,0.00,WUHU216HW,2013-04-14 18:44:00,
2013-04-14 13:49:00,71.2,51.6,29.12,SSE,158,14.3,14.3,50,0.00,,,0.00,WUHU216HW,2013-04-14 18:49:00,
2013-04-14 13:55:00,71.2,51.6,29.13,South,180,7.6,14.3,50,0.00,,,0.00,WUHU216HW,2013-04-14 18:55:00,
2013-04-14 14:00:00,71.2,51.6,29.12,SE,135,6.7,11.4,50,0.00,,,0.00,WUHU216HW,2013-04-14 19:00:00,
2013-04-14 14:05:00,71.4,52.3,29.12,SSE,158,6.2,14.0,51,0.00,,,0.00,WUHU216HW,2013-04-14 19:05:00,
2013-04-14 14:10:00,71.7,52.6,29.12,SSE,158,6.4,14.0,51,0.00,,,0.00,WUHU216HW,2013-04-14 19:10:00,
2013-04-14 14:15:00,72.3,53.1,29.12,SE,135,2.9,8.5,51,0.00,,,0.00,WUHU216HW,2013-04-14 19:15:00,
2013-04-14 14:20:00,72.6,53.4,29.12,SSE,158,0.0,5.3,51,0.00,,,0.00,WUHU216HW,2013-04-14 19:20:00,
2013-04-14 14:25:00,73.0,53.7,29.11,South,180,11.8,11.8,51,0.00,,,0.00,WUHU216HW,2013-04-14 19:25:00,
2013-04-14 14:30:00,73.2,53.4,29.11,SSW,203,10.0,11.8,50,0.00,,,0.00,WUHU216HW,2013-04-14 19:30:00,
2013-04-14 14:35:00,73.0,52.6,29.12,SSE,158,9.1,10.0,49,0.00,,,0.00,WUHU216HW,2013-04-14 19:35:00,
2013-04-14 14:40:00,72.8,52.5,29.11,ESE,113,6.9,9.6,49,0.00,,,0.00,WUHU216HW,2013-04-14 19:40:00,
2013-04-14 14:45:00,72.6,52.3,29.11,SSE,158,7.3,9.1,49,0.00,,,0.00,WUHU216HW,2013-04-14 19:45:00,
2013-04-14 14:50:00,72.6,52.9,29.11,South,180,8.9,8.9,50,0.00,,,0.00,WUHU216HW,2013-04-14 19:50:00,
2013-04-14 14:55:00,72.8,53.1,29.11,SSW,203,8.2,8.9,50,0.00,,,0.00,WUHU216HW,2013-04-14 19:55:00,
2013-04-14 15:00:00,73.0,53.2,29.11,South,180,5.1,8.9,49,0.00,,,0.00,WUHU216HW,2013-04-14 20:00:00,
2013-04-14 15:05:00,73.0,52.6,29.11,South,180,6.0,6.7,49,0.00,,,0.00,WUHU216HW,2013-04-14 20:05:00,
2013-04-14 15:10:00,73.0,52.6,29.12,SSE,158,2.6,8.0,49,0.00,,,0.00,WUHU216HW,2013-04-14 20:10:00,
2013-04-14 15:15:00,72.6,52.5,29.12,SSW,203,12.7,12.7,49,0.00,,,0.00,WUHU216HW,2013-04-14 20:15:00,
2013-04-14 15:20:00,72.5,52.1,29.12,SSE,158,6.7,12.7,49,0.00,,,0.00,WUHU216HW,2013-04-14 20:20:00,
2013-04-14 15:25:00,72.3,52.0,29.12,South,180,3.1,12.7,49,0.00,,,0.00,WUHU216HW,2013-04-14 20:25:00,
2013-04-14 15:30:00,72.1,52.6,29.11,SW,225,3.3,7.8,50,0.00,,,0.00,WUHU216HW,2013-04-14 20:30:00,
2013-04-14 15:35:00,72.1,52.4,29.11,SW,225,4.4,11.4,50,0.00,,,0.00,WUHU216HW,2013-04-14 20:35:00,
2013-04-14 15:40:00,71.9,52.8,29.11,South,180,4.0,11.4,51,0.00,,,0.00,WUHU216HW,2013-04-14 20:40:00,
2013-04-14 15:45:00,71.7,52.6,29.12,SSE,158,3.8,7.3,51,0.00,,,0.00,WUHU216HW,2013-04-14 20:45:00,
2013-04-14 15:50:00,71.4,52.8,29.12,SSW,203,0.0,3.8,52,0.00,,,0.00,WUHU216HW,2013-04-14 20:50:00,
2013-04-14 15:55:00,71.4,52.8,29.11,South,180,6.7,6.7,52,0.00,,,0.00,WUHU216HW,2013-04-14 20:55:00,
2013-04-14 16:00:00,71.4,52.8,29.11,SSE,158,12.0,12.0,52,0.00,,,0.00,WUHU216HW,2013-04-14 21:00:00,
2013-04-14 16:05:00,71.4,52.8,29.11,South,180,6.7,12.0,52,0.00,,,0.00,WUHU216HW,2013-04-14 21:05:00,
2013-04-14 16:10:00,71.6,52.9,29.11,South,180,3.1,12.0,52,0.00,,,0.00,WUHU216HW,2013-04-14 21:10:00,
2013-04-14 16:15:00,71.7,52.6,29.11,SSW,203,1.7,7.6,51,0.00,,,0.00,WUHU216HW,2013-04-14 21:15:00,
2013-04-14 16:20:00,72.1,52.9,29.09,SSE,158,6.9,11.1,51,0.00,,,0.00,WUHU216HW,2013-04-14 21:20:00,
2013-04-14 16:25:00,72.1,52.9,29.09,SE,135,5.5,11.1,51,0.00,,,0.00,WUHU216HW,2013-04-14 21:25:00,
2013-04-14 16:30:00,72.1,53.4,29.09,South,180,8.5,8.5,52,0.00,,,0.00,WUHU216HW,2013-04-14 21:30:00,
2013-04-14 16:35:00,72.1,52.9,29.10,SSE,158,1.7,8.5,51,0.00,,,0.00,WUHU216HW,2013-04-14 21:35:00,
2013-04-14 16:40:00,72.1,52.9,29.11,South,180,3.3,8.9,51,0.00,,,0.00,WUHU216HW,2013-04-14 21:40:00,
2013-04-14 16:45:00,71.7,52.6,29.10,South,180,4.6,8.9,51,0.00,,,0.00,WUHU216HW,2013-04-14 21:45:00,
2013-04-14 16:50:00,71.4,52.3,29.10,South,180,7.1,7.1,51,0.00,,,0.00,WUHU216HW,2013-04-14 21:50:00,
2013-04-14 16:55:00,71.4,52.8,29.10,SSE,158,3.3,7.3,52,0.00,,,0.00,WUHU216HW,2013-04-14 21:55:00,
2013-04-14 17:00:00,71.2,52.6,29.10,SSW,203,1.7,7.3,52,0.00,,,0.00,WUHU216HW,2013-04-14 22:00:00,
2013-04-14 17:05:00,70.8,52.8,29.10,SSW,203,2.4,2.4,53,0.00,,,0.00,WUHU216HW,2013-04-14 22:05:00,
2013-04-14 17:10:00,70.8,52.8,29.10,SSE,158,2.6,2.6,53,0.00,,,0.00,WUHU216HW,2013-04-14 22:10:00,
2013-04-14 17:15:00,70.7,52.6,29.11,SE,135,0.0,2.6,53,0.00,,,0.00,WUHU216HW,2013-04-14 22:15:00,
2013-04-14 17:20:00,70.5,52.5,29.11,SSE,158,4.9,4.9,53,0.00,,,0.00,WUHU216HW,2013-04-14 22:20:00,
2013-04-14 17:25:00,70.5,53.0,29.11,SSE,158,0.0,4.9,54,0.00,,,0.00,WUHU216HW,2013-04-14 22:25:00,
2013-04-14 17:30:00,70.5,53.0,29.11,SSE,158,2.0,5.3,54,0.00,,,0.00,WUHU216HW,2013-04-14 22:30:00,
2013-04-14 17:35:00,70.3,52.8,29.11,South,180,3.1,5.3,54,0.00,,,0.00,WUHU216HW,2013-04-14 22:35:00,
2013-04-14 17:40:00,70.3,52.8,29.11,SSE,158,1.7,5.3,54,0.00,,,0.00,WUHU216HW,2013-04-14 22:40:00,
2013-04-14 17:45:00,70.3,52.8,29.10,SSE,158,0.0,1.7,54,0.00,,,0.00,WUHU216HW,2013-04-14 22:45:00,
2013-04-14 17:50:00,70.3,53.3,29.10,SSE,158,0.0,1.7,55,0.00,,,0.00,WUHU216HW,2013-04-14 22:50:00,
2013-04-14 17:55:00,70.5,53.5,29.10,SSE,158,0.0,1.7,55,0.00,,,0.00,WUHU216HW,2013-04-14 22:55:00,
2013-04-14 18:00:00,70.5,53.5,29.10,SSE,158,0.0,0.0,55,0.00,,,0.00,WUHU216HW,2013-04-14 23:00:00,
2013-04-14 18:05:00,70.3,53.8,29.10,South,180,0.0,0.0,56,0.00,,,0.00,WUHU216HW,2013-04-14 23:05:00,
2013-04-14 18:10:00,70.3,53.8,29.11,SSW,203,0.0,0.0,56,0.00,,,0.00,WUHU216HW,2013-04-14 23:10:00,
2013-04-14 18:15:00,70.1,53.7,29.11,SSW,203,5.3,5.3,56,0.00,,,0.00,WUHU216HW,2013-04-14 23:15:00,
2013-04-14 18:20:00,69.9,53.0,29.11,WSW,248,2.6,5.3,55,0.00,,,0.00,WUHU216HW,2013-04-14 23:20:00,
2013-04-14 18:25:00,69.9,53.5,29.12,WNW,293,4.4,5.3,56,0.00,,,0.00,WUHU216HW,2013-04-14 23:25:00,
2013-04-14 18:30:00,69.6,53.2,29.13,West,270,0.0,7.3,56,0.00,,,0.00,WUHU216HW,2013-04-14 23:30:00,
2013-04-14 18:35:00,69.4,53.0,29.14,SSW,203,1.5,7.3,56,0.00,,,0.00,WUHU216HW,2013-04-14 23:35:00,
2013-04-14 18:40:00,69.0,53.6,29.15,WSW,248,0.0,3.8,58,0.00,,,0.00,WUHU216HW,2013-04-14 23:40:00,
2013-04-14 18:45:00,68.1,54.1,29.15,SSW,203,0.0,3.8,61,0.02,,,0.00,WUHU216HW,2013-04-14 23:45:00,
2013-04-14 18:50:00,67.6,54.1,29.15,South,180,0.0,0.0,62,0.02,,,0.02,WUHU216HW,2013-04-14 23:50:00,
2013-04-14 18:55:00,66.9,53.4,29.15,South,180,0.0,0.0,62,0.02,,,0.02,WUHU216HW,2013-04-14 23:55:00,
2013-04-14 19:00:00,66.5,53.9,29.15,SE,135,0.0,0.0,64,0.02,,,0.02,WUHU216HW,2013-04-15 00:00:00,
2013-04-14 19:05:00,66.2,53.6,29.15,SW,225,0.0,0.0,64,0.02,,,0.02,WUHU216HW,2013-04-15 00:05:00,
2013-04-14 19:10:00,65.8,54.1,29.16,West,270,0.0,0.0,66,0.02,,,0.02,WUHU216HW,2013-04-15 00:10:00,
2013-04-14 19:15:00,65.4,54.6,29.16,West,270,0.0,0.0,68,0.04,,,0.04,WUHU216HW,2013-04-15 00:15:00,
2013-04-14 19:20:00,64.7,54.8,29.17,WNW,293,0.0,0.0,70,0.04,,,0.04,WUHU216HW,2013-04-15 00:20:00,
2013-04-14 19:25:00,64.5,54.6,29.17,West,270,0.0,0.0,70,0.04,,,0.04,WUHU216HW,2013-04-15 00:25:00,
2013-04-14 19:30:00,64.2,55.0,29.18,West,270,0.0,0.0,72,0.10,,,0.06,WUHU216HW,2013-04-15 00:30:00,
2013-04-14 19:35:00,64.0,55.2,29.18,WNW,293,0.0,0.0,73,0.10,,,0.10,WUHU216HW,2013-04-15 00:35:00,
2013-04-14 19:40:00,63.5,55.0,29.18,SW,225,0.0,0.0,74,0.12,,,0.12,WUHU216HW,2013-04-15 00:40:00,
2013-04-14 19:45:00,63.3,54.5,29.19,WNW,293,1.3,1.3,73,0.10,,,0.12,WUHU216HW,2013-04-15 00:45:00,
2013-04-14 19:50:00,63.1,54.3,29.19,West,270,4.4,4.4,73,0.10,,,0.12,WUHU216HW,2013-04-15 00:50:00,
2013-04-14 19:55:00,62.9,53.7,29.20,WNW,293,1.7,4.4,72,0.10,,,0.12,WUHU216HW,2013-04-15 00:55:00,
2013-04-14 20:00:00,62.6,52.7,29.20,NNW,338,3.8,3.8,70,0.10,,,0.12,WUHU216HW,2013-04-15 01:00:00,
2013-04-14 20:05:00,62.4,52.5,29.21,NNW,338,8.2,8.2,70,0.10,,,0.12,WUHU216HW,2013-04-15 01:05:00,
2013-04-14 20:10:00,61.8,51.6,29.21,WNW,293,5.1,11.4,69,0.08,,,0.12,WUHU216HW,2013-04-15 01:10:00,
2013-04-14 20:15:00,61.5,50.9,29.21,WNW,293,9.6,11.4,68,0.08,,,0.12,WUHU216HW,2013-04-15 01:15:00,
2013-04-14 20:20:00,60.9,50.5,29.21,NW,315,7.1,9.6,67,0.08,,,0.12,WUHU216HW,2013-04-15 01:20:00,
2013-04-14 20:25:00,60.8,49.4,29.22,NW,315,7.3,8.0,66,0.06,,,0.12,WUHU216HW,2013-04-15 01:25:00,
2013-04-14 20:30:00,60.6,49.6,29.22,NNW,338,6.4,8.0,67,0.02,,,0.12,WUHU216HW,2013-04-15 01:30:00,
2013-04-14 20:35:00,60.4,49.0,29.23,NNW,338,2.0,7.8,66,0.00,,,0.12,WUHU216HW,2013-04-15 01:35:00,
2013-04-14 20:40:00,60.0,48.7,29.23,NW,315,0.0,7.8,66,0.00,,,0.12,WUHU216HW,2013-04-15 01:40:00,
2013-04-14 20:45:00,60.0,48.5,29.23,NW,315,0.0,4.9,66,0.00,,,0.12,WUHU216HW,2013-04-15 01:45:00,
2013-04-14 20:50:00,59.7,48.3,29.24,NW,315,2.6,2.6,66,0.00,,,0.12,WUHU216HW,2013-04-15 01:50:00,
2013-04-14 20:55:00,59.7,47.9,29.24,NW,315,2.6,2.6,65,0.00,,,0.12,WUHU216HW,2013-04-15 01:55:00,
2013-04-14 21:00:00,59.7,47.9,29.25,NW,315,2.6,2.6,65,0.00,,,0.12,WUHU216HW,2013-04-15 02:00:00,
2013-04-14 21:05:00,59.7,47.9,29.25,NW,315,2.6,2.6,65,0.00,,,0.12,WUHU216HW,2013-04-15 02:05:00,
2013-04-14 21:27:00,58.8,47.0,29.27,NW,315,0.0,0.0,65,0.00,,,0.12,WUHU216HW,2013-04-15 02:27:00,
2013-04-14 21:32:00,58.8,47.0,29.27,NW,315,0.0,0.0,65,0.00,,,0.12,WUHU216HW,2013-04-15 02:32:00,
2013-04-14 21:37:00,58.8,47.0,29.27,NW,315,0.0,0.0,65,0.00,,,0.12,WUHU216HW,2013-04-15 02:37:00,
2013-04-14 21:42:00,58.8,47.0,29.28,NW,315,0.0,0.0,65,0.00,,,0.12,WUHU216HW,2013-04-15 02:42:00,
2013-04-14 21:47:00,58.8,47.0,29.28,NNW,338,0.0,0.0,65,0.00,,,0.12,WUHU216HW,2013-04-15 02:47:00,
2013-04-14 21:52:00,58.6,46.8,29.28,NNW,338,0.0,0.0,65,0.00,,,0.12,WUHU216HW,2013-04-15 02:52:00,
2013-04-14 21:57:00,58.4,46.6,29.28,NNW,338,0.0,0.0,65,0.00,,,0.12,WUHU216HW,2013-04-15 02:57:00,
2013-04-14 22:02:00,58.2,46.5,29.28,NNW,338,0.0,0.0,65,0.00,,,0.12,WUHU216HW,2013-04-15 03:02:00,
2013-04-14 22:07:00,58.2,46.5,29.29,NNW,338,3.1,3.1,65,0.00,,,0.12,WUHU216HW,2013-04-15 03:07:00,
2013-04-14 22:12:00,58.2,46.1,29.29,NNW,338,0.0,3.1,64,0.00,,,0.12,WUHU216HW,2013-04-15 03:12:00,
2013-04-14 22:17:00,58.1,45.9,29.29,NW,315,0.0,3.1,64,0.00,,,0.12,WUHU216HW,2013-04-15 03:17:00,
2013-04-14 22:22:00,57.9,45.7,29.30,NW,315,0.0,0.0,64,0.00,,,0.12,WUHU216HW,2013-04-15 03:22:00,
2013-04-14 22:27:00,57.7,45.6,29.30,North,0,0.6,0.6,64,0.00,,,0.12,WUHU216HW,2013-04-15 03:27:00,
2013-04-14 22:32:00,57.7,45.1,29.31,WNW,293,0.0,0.6,63,0.00,,,0.12,WUHU216HW,2013-04-15 03:32:00,
2013-04-14 22:37:00,57.5,45.0,29.31,NW,315,0.0,0.6,63,0.00,,,0.12,WUHU216HW,2013-04-15 03:37:00,
2013-04-14 22:43:00,57.5,45.0,29.31,WSW,248,0.0,0.0,63,0.00,,,0.12,WUHU216HW,2013-04-15 03:43:00,
2013-04-14 22:48:00,57.3,44.8,29.31,WNW,293,0.0,0.0,63,0.00,,,0.12,WUHU216HW,2013-04-15 03:48:00,
2013-04-14 22:53:00,57.3,44.8,29.31,WNW,293,0.0,1.5,63,0.00,,,0.12,WUHU216HW,2013-04-15 03:53:00,
2013-04-14 22:58:00,57.3,44.4,29.31,NW,315,4.9,4.9,62,0.00,,,0.12,WUHU216HW,2013-04-15 03:58:00,
2013-04-14 23:00:00,57.3,44.0,29.31,NE,45,1.1,4.9,61,0.00,,,0.12,WUHU216HW,2013-04-15 04:00:00,
2013-04-14 23:05:00,57.5,43.3,29.31,WNW,293,1.1,6.2,59,0.00,,,0.12,WUHU216HW,2013-04-15 04:05:00,
2013-04-14 23:10:00,57.5,43.3,29.31,WNW,293,0.0,6.2,59,0.00,,,0.12,WUHU216HW,2013-04-15 04:10:00,
2013-04-14 23:15:00,57.5,43.3,29.31,WNW,293,0.0,0.0,59,0.00,,,0.12,WUHU216HW,2013-04-15 04:15:00,
2013-04-14 23:20:00,57.5,43.3,29.31,WNW,293,0.0,0.0,59,0.00,,,0.12,WUHU216HW,2013-04-15 04:20:00,
2013-04-14 23:25:00,57.5,41.0,29.31,WNW,293,0.0,0.0,54,0.00,,,0.12,WUHU216HW,2013-04-15 04:25:00,
2013-04-14 23:30:00,57.3,40.8,29.31,NW,315,5.1,5.1,54,0.00,,,0.12,WUHU216HW,2013-04-15 04:30:00,
2013-04-14 23:35:00,56.8,39.4,29.32,NW,315,4.6,5.1,52,0.00,,,0.12,WUHU216HW,2013-04-15 04:35:00,
2013-04-14 23:40:00,56.4,39.3,29.31,NNE,23,3.5,5.1,53,0.00,,,0.12,WUHU216HW,2013-04-15 04:40:00,
2013-04-14 23:45:00,56.1,38.6,29.33,NNW,338,3.1,3.5,52,0.00,,,0.12,WUHU216HW,2013-04-15 04:45:00,
2013-04-14 23:50:00,55.9,38.9,29.34,West,270,1.5,3.1,53,0.00,,,0.12,WUHU216HW,2013-04-15 04:50:00,
2013-04-14 23:55:00,55.5,38.6,29.35,WNW,293,3.3,3.3,53,0.00,,,0.12,WUHU216HW,2013-04-15 04:55:00,